Zamboanga, Philippines

6:40 PM +08 on May 29, 2017 (GMT +0800)
Zamboanga International

Weather History for RPMZ - October, 2012

Change the Weather History Date:

Tuesday, October 16, 2012

  Actual Average Record
Temperature  
Mean Temperature 83 °F -  
Max Temperature 90 °F 89 °F - ()
Min Temperature 76 °F 74 °F - ()
Cooling Degree Days 18    
Growing Degree Days 33 (Base 50)    
Moisture  
Dew Point 77 °F    
Average Humidity 80    
Maximum Humidity 94    
Minimum Humidity 66    
Precipitation  
Precipitation 0.00 in 0.17 in - ()
Sea Level Pressure  
Sea Level Pressure 29.89 in    
Wind  
Wind Speed 2 mph ()    
Max Wind Speed 9 mph    
Max Gust Speed -    
Visibility 6.1 miles    
Events Thunderstorm    
T = Trace of Precipitation, MM = Missing Value Source: Averaged Metar Reports

Daily Weather History Graph

Daily Weather History Graph

Search for Another Location

Airport or City:

Trip Planner

Search our weather history database for the weather conditions in past years. The results will help you decide how hot, cold, wet, or windy it might be!

Date:

Astronomy

Oct. 16, 2012 Rise Set
Actual Time 5:38 AM +08 5:36 PM +08
Civil Twilight 5:17 AM +08 5:57 PM +08
Nautical Twilight 4:52 AM +08 6:21 PM +08
Astronomical Twilight 4:28 AM +08 6:46 PM +08
Moon 6:02 AM +08 (10/16) 6:14 PM +08 (10/16)
Length of Visible Light 12h 39m
Length of Day
11h 57m
New Moon, 1% of the Moon is Illuminated
Oct 16
New Moon
Oct 22
First Quarter
Oct 30
Full
Nov 7
Last Quarter
Nov 14
New

Hourly Weather History & Observations

Time (+08) Temp. Heat Index Dew Point Humidity Pressure Visibility Wind Dir Wind Speed Gust Speed Precip Events Conditions
2:00 AM 78 °F - 75 °F 87% 29.91 in 6 mi Calm Calm - -   Haze
2:00 AM 77.0 °F - 75.2 °F 94% 29.92 in 6.2 mi Calm Calm - N/A   Mostly Cloudy
5:00 AM 77 °F - 75 °F 92% 29.90 in 6 mi Calm Calm - -   Haze
5:00 AM 77.0 °F - 75.2 °F 94% 29.92 in 6.2 mi Calm Calm - N/A   Mostly Cloudy
6:00 AM 77.0 °F - 75.2 °F 94% 29.92 in 6.2 mi Calm Calm - N/A   Mostly Cloudy
7:00 AM 78.8 °F - 77.0 °F 94% 29.92 in 6.2 mi Calm Calm - N/A   Mostly Cloudy
8:00 AM 83 °F - 78 °F 80% 29.92 in 6 mi Calm Calm - -   Haze
8:00 AM 82.4 °F 92.4 °F 78.8 °F 89% 29.92 in 6.2 mi Calm Calm - N/A   Partly Cloudy
9:00 AM 84.2 °F 96.1 °F 78.8 °F 84% 29.95 in 6.2 mi SSW 4.6 mph - N/A   Partly Cloudy
10:00 AM 87.8 °F 102.5 °F 78.8 °F 75% 29.95 in 6.2 mi South 6.9 mph - N/A   Partly Cloudy
11:00 AM 89 °F - 79 °F 67% 29.90 in 6 mi South 4.5 mph - -   Haze
11:00 AM 89.6 °F 104.7 °F 78.8 °F 70% 29.92 in 6.2 mi South 4.6 mph - N/A   Partly Cloudy
12:00 PM 89.6 °F 104.7 °F 78.8 °F 70% 29.89 in 6.2 mi South 6.9 mph - N/A Thunderstorm Light Thunderstorm
1:00 PM 87.8 °F 102.5 °F 78.8 °F 75% 29.86 in 6.2 mi South 6.9 mph - N/A   Scattered Clouds
2:00 PM 89 °F - 79 °F 66% 29.85 in 6 mi WSW 6.7 mph - -   Scattered Clouds
2:00 PM 87.8 °F 102.5 °F 78.8 °F 75% 29.86 in 6.2 mi WSW 6.9 mph - N/A   Scattered Clouds
3:00 PM 89.6 °F 102.2 °F 77.0 °F 66% 29.83 in 6.2 mi West 9.2 mph - N/A   Partly Cloudy
4:00 PM 87.8 °F 99.7 °F 77.0 °F 70% 29.83 in 6.2 mi WSW 4.6 mph - N/A   Partly Cloudy
5:00 PM 86 °F - 78 °F 70% 29.85 in 6 mi WSW 2.2 mph - -   Haze
5:00 PM 86.0 °F 96.9 °F 77.0 °F 74% 29.86 in 6.2 mi WSW 2.3 mph - N/A   Partly Cloudy
6:00 PM 84.2 °F 92.3 °F 75.2 °F 74% 29.86 in 6.2 mi WSW 2.3 mph - N/A   Mostly Cloudy
8:00 PM 82 °F - 77 °F 82% 29.88 in 6 mi Calm Calm - -   Haze
8:00 PM 82.4 °F 90.9 °F 77.0 °F 84% 29.89 in 6.2 mi Calm Calm - N/A   Mostly Cloudy
11:00 PM 79 °F - 76 °F 87% 29.90 in 6 mi Calm Calm - -   Haze
11:00 PM 78.8 °F - 75.2 °F 89% 29.92 in 6.2 mi Calm Calm - N/A   Mostly Cloudy